Khon Kaen, Thailand

10:06 AM ICT on February 06, 2016 (GMT +0700)
Khon Kaen

Weather History for VTUK - October, 2011

Change the Weather History Date:

Monday, October 24, 2011

  Actual Average Record
Temperature  
Mean Temperature 80 °F -  
Max Temperature 90 °F 87 °F - ()
Min Temperature 71 °F 68 °F - ()
Cooling Degree Days 16    
Growing Degree Days 30 (Base 50)    
Moisture  
Dew Point 74 °F    
Average Humidity 72    
Maximum Humidity 94    
Minimum Humidity 50    
Precipitation  
Precipitation 0.00 in 0.04 in - ()
Sea Level Pressure  
Sea Level Pressure 29.84 in    
Wind  
Wind Speed 4 mph ()    
Max Wind Speed 7 mph    
Max Gust Speed -    
Visibility 5.9 miles    
Events      
T = Trace of Precipitation, MM = Missing Value Source: Averaged Metar Reports

Daily Weather History Graph

Daily Weather History Graph

Search for Another Location

Airport or City:

Trip Planner

Search our weather history database for the weather conditions in past years. The results will help you decide how hot, cold, wet, or windy it might be!

Date:

Astronomy

Oct. 24, 2011 Rise Set
Actual Time 6:03 AM ICT 5:42 PM ICT
Civil Twilight 5:41 AM ICT 6:04 PM ICT
Nautical Twilight 5:15 AM ICT 6:29 PM ICT
Astronomical Twilight 4:50 AM ICT 6:55 PM ICT
Moon 3:08 AM ICT (10/24) 3:30 PM ICT (10/24)
Length of Visible Light 12h 23m
Length of Day
11h 39m
Waning Crescent, 10% of the Moon is Illuminated
Oct 24
Waning Crescent
Oct 27
New
Nov 2
First Quarter
Nov 11
Full
Nov 18
Last Quarter

Hourly Weather History & Observations

Time (ICT) Temp. Heat Index Dew Point Humidity Pressure Visibility Wind Dir Wind Speed Gust Speed Precip Events Conditions
1:00 AM 76 °F - 73 °F 89% 29.86 in 6 mi North 2.3 mph - -  
6:00 AM 73.4 °F - 71.6 °F 94% 29.86 in 5.0 mi East 3.5 mph - N/A   Unknown
7:00 AM 76 °F - 70 °F 76% 29.86 in 6 mi ENE 2.3 mph - -   Mist
7:00 AM 77.0 °F - 71.6 °F 83% 29.86 in 4.3 mi ENE 6.9 mph - N/A   Unknown
8:00 AM 78.8 °F - 73.4 °F 83% 29.89 in 5.0 mi ENE 4.6 mph - N/A   Unknown
9:00 AM 82.4 °F 88.2 °F 73.4 °F 74% 29.92 in - East 6.9 mph - N/A   Clear
10:00 AM 86.0 °F 93.4 °F 73.4 °F 66% 29.92 in 6.2 mi ENE 6.9 mph - N/A   Partly Cloudy
11:00 AM 86.0 °F 93.4 °F 73.4 °F 66% 29.89 in 6.2 mi NE 6.9 mph - N/A   Partly Cloudy
12:00 PM 87.8 °F 97.6 °F 75.2 °F 66% 29.86 in 6.2 mi NE 6.9 mph - N/A   Scattered Clouds
1:00 PM 88 °F - 72 °F 50% 29.81 in 6 mi North 5.8 mph - -   Partly Cloudy
1:00 PM 87.8 °F 97.6 °F 75.2 °F 66% 29.83 in 6.2 mi North 5.8 mph - N/A   Scattered Clouds
2:00 PM 89.6 °F 98.2 °F 73.4 °F 59% 29.80 in 6.2 mi NE 6.9 mph - N/A   Scattered Clouds
3:00 PM 89.6 °F 98.2 °F 73.4 °F 59% 29.77 in 6.2 mi NNE 6.9 mph - N/A   Scattered Clouds
4:00 PM 89.6 °F 98.2 °F 73.4 °F 59% 29.77 in 6.2 mi NNE 3.5 mph - N/A   Scattered Clouds
5:00 PM 86.0 °F 95.1 °F 75.2 °F 70% 29.80 in 6.2 mi North 3.5 mph - N/A   Scattered Clouds
6:00 PM 84.2 °F 94.1 °F 77.0 °F 79% 29.80 in 5.6 mi NNW 3.5 mph - N/A   Mostly Cloudy
7:00 PM 84 °F - 73 °F 62% 29.81 in 6 mi North 2.3 mph - -   Partly Cloudy
7:00 PM 82.4 °F 89.5 °F 75.2 °F 79% 29.83 in 6.2 mi North 2.3 mph - N/A   Mostly Cloudy
8:00 PM 80.6 °F 86.2 °F 75.2 °F 84% 29.83 in 6.2 mi North 3.5 mph - N/A   Mostly Cloudy